Simultaneous Nadir Overpasses (SNOs) Predictions

Prediction of SNOs between LANDSAT-8 and NOAA-19 Satellite Orbit:

Table of predicted SNOs for the next 14.0 days since TLE Epoch: 1/23/2022
Index Date (LANDSAT-8) Time (LANDSAT-8) Lat,Lon (LANDSAT-8) SZA (LANDSAT-8 ) Date (NOAA-19) Time (NOAA-19) Lat,Lon (NOAA-19) SZA (NOAA-19 ) Distance(km) Time Diff (sec)
1 01/24/2022 17:12:48 80.68, -44.21 100.99 01/24/2022 17:12:09 80.68, -44.29 100.97 1.41 39
2 01/24/2022 18:02:15 -80.67, 123.37 79.03 01/24/2022 18:03:05 -80.67, 123.23 79.03 2.50 50
3 01/26/2022 23:35:58 80.66,-140.20 100.39 01/26/2022 23:36:12 80.68,-140.23 100.40 2.11 14
4 01/29/2022 05:09:41 -80.67, -43.57 80.20 01/29/2022 05:09:11 -80.68, -43.51 80.19 2.14 30
5 01/29/2022 05:59:07 80.67, 124.11 99.80 01/29/2022 06:00:14 80.67, 124.15 99.82 0.75 67
6 01/31/2022 10:43:23 80.67, 53.09 99.20 01/31/2022 10:42:18 80.69, 53.24 99.20 3.03 65
7 01/31/2022 11:32:50 -80.67,-139.28 80.82 01/31/2022 11:33:13 -80.68,-139.28 80.81 0.56 23
8 02/02/2022 17:06:32 80.68, -42.68 98.55 02/02/2022 17:06:21 80.69, -42.80 98.55 2.60 11
9 02/02/2022 17:56:00 -80.65, 124.63 81.52 02/02/2022 17:57:06 -80.55, 128.11 81.29 64.06 66
10 02/04/2022 22:40:15 -80.67, 53.87 82.13 02/04/2022 22:39:19 -80.69, 53.88 82.13 2.21 56



Historial Predications of SNOs between LANDSAT-8 and NOAA-19
